Showing default

SOAP, 63263

Orbit data source: Space-Track

SOAP, 63263 is a payload satellite owned by U-Space (FR) in SSO that was launched on Sat, 15 Mar 2025 UTC via an FALCON 9 launch vehicle from the Air Force Western Test Range (AFWTR). Payload-class satellites include a variety of spacecraft equipped with specific instruments for various scientific and technological missions. These include communications satellites like Starlink; space stations such as the ISS; scientific satellites like the Hubble; Earth observation satellites from companies like Planet Labs, Umbra, and HawkEye 360; GPS; miniature CubeSats for education and research; and military/defense satellites.

Loading next visibility...
Identifier
63263, 2025-052BF
Orbit
SSO
Country
Flag of FRFR
Related business
Manufacturer
U-Space
Mission
Operational Commercial Technology
Bus & Motor
CUBESAT 12U, Unknown motor
Mass
~16 kg wet, ~16 kg dry
Launch date (UTC)
2025-03-15 (1 year ago)
Launch vehicle
FALCON 9
Launch site
Air Force Western Test Range (AFWTR)
Object type
Payload
Rocket body
Debris
Shape & HBR
Box + 2 Pan, 1.0 m
Radar Cross Section
0.155 m², Medium (>0.1 m² and < 1m²)

Expand to show TLE details & history
Last TLE update: 11 hours ago

TLE from 11 hours ago
0 SOAP
1 63263U 25052BF  26171.50167056  .00002175  00000-0  19496-3 0  9998
2 63263  97.6849  63.7610 0001725  16.2599 343.8677 14.96805595 69189
Epoch: 2026-06-20T12:02Z
TLE epoch observation values (Epoch: 2026-06-20T12:02:24.336Z)
Latitude
-0.00009°
Longitude
-25.55577°
Altitude
578.672 km
Speed
7.572 km/s
True Right ascension
04h 15m 02s
True Declination
0° 00' 00"
Sunlit
Object was in daylight at epoch
Visualization orbit readout
Latitude
Unknown
Longitude
Unknown
Altitude
Unknown
Speed
Unknown
Apparent Right ascension
Unknown
Apparent Declination
Unknown
Sunlit
N/A
Visualization observer readout
Local Sidereal Time
10:18:02
Azimuth
Unknown
Elevation
Unknown
Doppler factor
Unknown
Orbital elements
Apogee altitude
574.982 km
Perigee altitude
572.584 km
Semi-major axis
6,951.92 km
Eccentricity
0.00017
Inclination
97.6849°
RAAN
63.761°
Arg. of periapsis
16.2599°
True anomaly
343.86221°
Mean anomaly
343.8677°
Eccentric anomaly
343.86495°
Mean motion
3.74443 °/min
Orbital period
96.14 mins
BSTAR
0.00019496
Loading maneuver chart data...
Computing Atmospheric mass density...
Loading historical data...
Loading historical data...
Loading historical data...
Loading historical data...
Loading historical data...
Loading historical data...
Loading historical data...

Documentation

Showing up to 5 results
|